Temp
90 82 78 84 87 89 88 87 86 90 91 91 86 73 71 83 93 94 93 93 93 93 96 98 97 97 96 94 90 88 87 86 87 87 85 84 84 85 86 87 82 83 86 87
85 77 87 91 90 88 87 85 86 92 90 90 89 82 81 91 93 95 94 93 94 95 95 95 95 96 95 92 89 87 86 86 86 87 85 85 84 87 86 88 87 86 84 84
80 85 92 90 87 85 86 84 86 87 92 93 90 85 88 94 95 96 98 98 97 95 95 94 94 94 95 91 89 87 85 86 85 87 85 84 85 87 85 84 83 86 87 87
85 92 89 87 85 88 80 91 90 88 85 75 88 73 82 89 90 93 95 97 97 97 98 98 96 94 95 92 92 87 86 85 86 85 84 83 83 83 85 86 85 86 86 86
82 86 86 84 86 91 85 93 90 90 85 82 79 74 81 87 84 90 94 97 99 100 100 99 98 95 96 95 93 90 86 85 85 85 84 84 84 86 87 86 84 83 84 87
87 96 92 91 93 93 95 90 89 89 86 71 79 75 77 82 80 89 96 98 99 101 101 100 101 98 96 97 94 91 86 84 85 85 84 83 83 83 85 86 83 83 83 84
84 86 94 95 88 92 90 84 73 70 72 71 85 77 79 89 92 93 90 91 101 102 102 99 98 98 94 93 93 91 86 83 84 85 84 83 84 83 83 86 84 83 84 83
74 71 86 93 88 85 85 84 74 61 67 72 85 76 82 92 95 93 90 91 103 101 101 100 98 97 95 93 92 91 85 83 84 84 84 84 84 86 86 85 87 86 86 86
76 75 92 92 94 91 84 78 89 78 81 75 81 85 93 95 93 93 94 99 100 101 102 102 101 100 98 93 91 89 86 84 84 85 84 84 83 84 85 84 84 86 84 87
84 74 88 91 94 93 87 92 77 79 64 64 76 77 80 85 81 90 95 97 102 103 104 103 103 100 98 97 94 91 88 85 85 86 85 86 85 84 85 85 84 83 85 86
87 82 81 89 83 82 83 80 82 84 79 70 68 76 94 90 91 92 95 98 102 104 104 103 103 102 98 98 95 93 90 87 86 86 86 85 85 85 84 86 85 84 84 83
88 82 75 80 91 93 89 83 82 73 70 78 77 79 99 96 96 98 98 100 103 103 106 105 105 102 99 97 96 94 93 91 88 87 86 85 85 85 84 84 86 85 83 83
89 79 70 73 84 89 84 86 86 85 83 73 72 76 95 96 92 94 98 100 98 98 101 104 104 100 98 96 94 94 94 94 93 88 87 86 85 84 84 84 84 85 84 82
87 82 74 71 75 83 79 83 85 84 75 76 78 81 87 90 90 93 96 99 101 101 100 102 102 99 99 96 93 92 93 96 94 91 89 85 84 84 85 84 83 84 84 82
86 73 79 80 83 85 83 83 83 79 80 75 81 82 87 91 91 93 96 99 98 98 98 97 100 100 96 95 92 93 94 93 94 90 88 86 86 85 84 84 84 84 84 82
85 72 76 76 82 82 80 84 85 84 83 83 84 82 94 97 98 95 90 95 95 96 99 98 96 97 97 95 92 92 93 93 92 89 88 87 86 85 84 84 84 83 83 82
78 76 71 67 78 79 72 80 83 84 86 84 77 84 93 91 91 93 91 96 95 97 97 98 97 95 94 98 94 91 92 93 91 89 88 87 86 84 84 84 83 82 82 80
75 71 72 69 72 58 79 89 89 85 87 89 88 89 91 91 93 95 95 94 92 99 99 100 103 100 98 102 101 95 95 91 89 88 88 88 86 85 84 83 82 81 82 80
82 74 68 64 66 72 78 84 84 81 80 90 88 90 93 95 95 91 98 98 97 97 99 100 105 105 99 98 97 93 92 91 90 88 88 88 87 84 83 82 81 81 80 78
79 77 71 67 62 59 76 87 92 87 72 89 87 87 89 89 80 87 95 99 99 101 102 101 102 104 104 97 101 92 91 89 88 88 88 88 87 85 83 82 81 81 79 77
66 68 65 66 64 70 78 86 89 67 71 83 85 86 86 82 86 88 93 93 100 99 99 101 101 99 95 96 96 89 89 87 89 90 89 87 86 84 84 82 80 79 77 76
62 61 64 66 62 58 85 82 70 78 82 84 85 86 85 87 89 91 92 94 96 95 100 99 97 98 95 93 89 87 85 87 87 87 86 85 84 85 83 79 77 77 75 73
61 69 66 69 69 72 80 77 81 85 82 83 84 88 88 88 89 93 91 92 94 94 94 98 96 89 91 91 87 85 84 85 86 84 83 83 82 82 79 77 74 72 73 72
70 74 68 67 75 77 80 80 84 85 84 86 87 87 89 88 89 88 89 89 91 91 89 89 87 84 84 86 86 84 84 85 84 82 80 79 76 75 74 73 72 70 70 70
57 59 68 71 74 73 78 80 82 83 82 79 78 78 77 79 79 82 83 82 84 85 86 84 82 82 82 82 83 84 83 82 79 77 77 76 75 74 68 61 63 72 63 63
55 55 55 57 60 66 72 79 81 78 78 80 78 76 76 72 68 69 76 80 81 80 81 79 77 77 78 79 78 80 81 79 77 75 74 73 73 73 70 67 62 47 48 46
MSLP
997.71 997.59 996.41 996.34 996.61 996.18 995.08 994.15 993.65 993.28 994.86 995.60 996.77 999.70 1000.91 1000.23 999.74 999.63 1000.25 1001.17 1002.01 1002.79 1003.64 1004.42 1005.36 1006.20 1007.17 1008.08 1009.02 1009.87 1010.59 1011.12 1011.74 1012.26 1013.00 1013.51 1013.86 1013.99 1014.02 1013.85 1014.22 1014.80 1014.87 1015.16
996.87 996.05 996.03 996.11 996.05 995.86 994.99 993.87 993.02 992.82 994.53 995.45 995.88 997.63 998.02 998.41 998.03 998.43 999.10 1000.09 1000.95 1001.81 1002.68 1003.70 1004.60 1005.47 1006.45 1007.49 1008.46 1009.41 1010.16 1010.80 1011.36 1011.98 1012.52 1013.12 1013.31 1013.24 1013.30 1013.22 1013.48 1013.95 1014.58 1014.92
995.30 994.99 995.37 995.08 994.99 994.91 994.46 993.60 992.92 992.72 993.29 994.12 994.85 995.74 995.87 996.21 996.98 997.35 997.85 998.70 999.81 1000.67 1001.61 1002.66 1003.74 1004.80 1005.68 1006.71 1007.72 1008.72 1009.73 1010.49 1011.16 1011.63 1012.27 1012.75 1013.01 1012.81 1012.75 1013.18 1013.65 1013.81 1013.92 1014.40
994.49 994.26 994.03 994.15 993.83 993.94 993.40 993.31 992.95 992.89 992.71 993.39 994.58 994.33 994.89 995.81 995.86 996.37 996.66 997.34 998.19 999.35 1000.47 1001.44 1002.57 1003.82 1004.87 1005.87 1007.00 1008.20 1009.14 1010.06 1010.79 1011.42 1011.94 1012.11 1012.37 1012.48 1012.54 1012.81 1012.98 1013.36 1013.73 1014.07
993.25 993.21 992.69 992.65 992.72 992.93 992.60 992.80 992.69 992.61 992.59 992.98 994.68 994.86 994.39 994.57 994.86 995.19 995.70 996.29 996.85 997.65 998.95 1000.11 1001.20 1002.60 1003.96 1005.05 1006.19 1007.33 1008.47 1009.42 1010.15 1010.86 1011.32 1011.68 1011.86 1012.11 1012.23 1012.34 1012.80 1013.24 1013.51 1013.64
992.72 992.27 992.05 991.62 992.27 992.44 992.74 992.67 992.42 992.38 992.35 992.47 993.41 994.19 993.51 993.47 994.07 994.82 994.32 995.15 995.70 996.33 997.29 998.64 999.87 1001.30 1002.63 1003.88 1005.10 1006.32 1007.57 1008.64 1009.43 1010.30 1010.88 1011.30 1011.51 1011.71 1011.87 1012.03 1012.57 1012.99 1013.36 1013.80
991.98 991.44 991.00 991.26 991.33 991.86 992.21 992.34 991.89 991.70 991.16 991.07 991.98 992.44 992.13 992.42 993.03 993.22 994.33 995.28 994.53 995.14 995.84 997.22 998.50 999.80 1001.28 1002.45 1003.82 1005.14 1006.50 1007.68 1008.62 1009.44 1010.27 1010.79 1011.17 1011.37 1011.57 1011.79 1012.06 1012.55 1013.06 1013.62
991.13 990.39 990.56 990.29 990.52 990.69 991.25 991.34 990.89 990.84 990.62 990.87 990.78 989.80 989.99 991.45 992.39 993.07 993.48 994.14 992.89 993.86 994.81 996.09 997.35 998.61 1000.00 1001.37 1002.66 1003.94 1005.39 1006.73 1007.69 1008.59 1009.39 1010.14 1010.56 1010.89 1011.07 1011.43 1011.55 1011.98 1012.24 1012.59
990.00 989.47 989.39 989.71 989.98 990.49 990.32 990.47 991.09 991.11 990.79 990.15 989.23 988.99 989.03 989.96 991.00 991.66 992.88 992.10 991.94 992.57 993.42 994.63 996.13 997.44 998.81 1000.28 1001.56 1002.78 1004.28 1005.73 1006.83 1007.71 1008.61 1009.23 1009.83 1010.16 1010.39 1010.86 1011.26 1011.61 1011.83 1012.01
989.37 988.97 988.55 988.80 989.77 989.46 989.51 990.31 990.68 990.58 989.96 988.97 988.76 988.25 988.02 988.76 990.00 993.08 991.09 991.44 991.33 991.59 992.15 993.44 995.00 996.47 997.82 999.27 1000.67 1002.03 1003.29 1004.57 1005.81 1006.76 1007.52 1008.27 1008.83 1009.39 1009.93 1010.33 1010.64 1011.04 1011.33 1011.65
989.22 988.83 988.12 987.96 987.61 988.43 989.51 989.62 989.64 990.10 989.96 988.70 988.33 987.26 987.28 987.64 988.92 989.58 989.96 990.23 991.00 990.94 991.21 992.31 993.65 995.08 996.75 998.38 999.85 1001.15 1002.49 1003.76 1004.84 1005.79 1006.60 1007.35 1007.95 1008.58 1009.31 1009.53 1009.89 1010.29 1010.82 1011.07
987.86 988.51 987.80 986.94 987.20 987.99 988.51 988.69 989.34 989.16 988.94 988.67 988.14 986.59 986.66 987.19 987.61 988.34 988.78 989.32 989.68 990.05 990.41 991.19 992.35 993.83 995.58 997.02 998.62 1000.05 1001.38 1002.57 1003.66 1004.69 1005.67 1006.38 1007.07 1007.66 1008.30 1008.83 1009.00 1009.55 1010.08 1010.61
986.94 987.24 987.71 987.46 986.73 986.53 987.03 987.82 988.37 988.93 989.04 987.89 987.83 986.80 986.88 987.21 988.77 988.87 988.70 988.96 989.30 989.55 990.00 990.49 991.46 992.90 994.56 996.14 997.43 998.84 1000.09 1001.30 1002.56 1003.79 1004.67 1005.38 1006.02 1006.68 1007.19 1007.77 1008.34 1008.73 1009.30 1009.85
986.26 986.46 986.53 985.81 986.04 986.51 986.55 986.94 987.56 987.95 987.87 987.45 987.00 987.31 986.77 987.50 987.95 988.69 988.35 988.79 988.85 989.14 989.88 990.40 991.33 992.12 993.65 994.84 996.16 997.37 998.75 999.97 1001.34 1002.54 1003.49 1004.18 1004.84 1005.35 1005.97 1006.79 1007.50 1007.96 1008.53 1009.29
986.09 986.13 986.10 986.52 986.53 986.23 985.87 986.16 986.92 987.17 987.07 987.07 986.62 986.59 986.89 986.63 987.50 987.88 988.29 988.69 988.89 989.23 989.68 990.47 991.13 991.93 992.87 993.95 995.18 996.33 997.38 998.70 999.91 1001.22 1002.19 1002.83 1003.67 1004.44 1005.32 1006.02 1006.60 1007.25 1007.75 1008.40
986.31 986.47 986.85 986.13 986.27 986.08 985.56 985.47 985.55 985.81 986.37 986.42 986.66 986.29 986.49 986.61 986.73 987.26 988.20 988.99 988.81 989.14 989.43 990.24 990.95 991.61 992.46 993.36 994.26 995.27 996.39 997.42 998.69 999.97 1000.81 1001.88 1002.85 1003.64 1004.30 1005.13 1005.81 1006.52 1007.06 1007.73
986.45 986.68 987.26 986.33 986.33 985.98 985.34 984.51 984.74 985.19 985.78 986.20 986.33 986.03 986.57 986.53 986.78 987.31 987.46 987.81 988.25 988.29 988.71 989.40 990.19 991.04 991.85 992.35 993.37 994.57 995.50 996.58 997.74 998.82 999.87 1000.83 1001.65 1002.54 1003.51 1004.39 1005.16 1005.75 1006.40 1007.24
986.29 986.88 987.48 987.08 986.95 985.69 984.22 984.78 985.02 984.83 985.07 985.41 985.78 986.18 986.48 986.59 986.85 987.16 987.61 988.02 988.11 987.55 988.10 988.57 989.17 990.19 991.16 991.74 992.55 993.79 994.98 995.97 996.87 997.93 998.92 999.85 1000.75 1001.71 1002.76 1003.70 1004.45 1005.19 1005.82 1006.59
986.00 986.77 987.46 987.17 986.68 986.01 985.35 984.87 984.80 985.19 985.22 985.41 985.59 985.91 986.12 986.48 986.79 986.56 986.95 987.20 987.66 988.21 988.14 988.06 988.55 989.09 990.31 991.09 991.79 993.05 994.32 995.29 996.21 996.97 997.89 998.84 999.93 1001.15 1002.28 1003.14 1003.93 1004.75 1005.63 1006.53
986.45 986.78 987.48 987.45 986.53 985.39 985.25 985.28 985.20 985.87 986.15 986.29 986.38 986.44 986.45 986.78 986.96 986.70 986.59 986.51 986.98 987.44 987.67 987.77 988.11 988.52 989.28 990.31 991.31 992.46 993.67 994.74 995.54 996.27 997.20 998.32 999.50 1000.70 1001.83 1002.83 1003.84 1004.65 1005.54 1006.43
987.43 986.87 987.11 987.25 986.85 986.49 985.85 985.57 986.22 987.02 987.39 987.63 987.78 987.74 987.60 987.75 987.73 987.71 987.51 987.35 986.41 986.85 987.00 987.37 987.79 988.14 988.88 989.58 990.72 992.00 993.33 994.23 995.27 996.45 997.35 998.27 999.37 1000.53 1001.70 1002.80 1003.65 1004.45 1005.43 1006.28
988.88 988.32 987.84 987.65 987.58 987.16 986.21 986.92 987.61 988.03 988.15 988.19 988.34 988.30 988.19 988.03 987.82 987.81 987.75 987.25 987.15 987.02 986.54 987.22 987.65 988.38 989.13 989.86 990.74 992.02 993.23 994.31 995.47 996.59 997.52 998.53 999.64 1000.66 1001.77 1002.79 1003.90 1004.55 1005.54 1006.52
990.55 989.72 988.98 988.30 987.94 987.95 989.44 988.02 988.39 988.72 989.22 989.04 988.90 988.62 988.53 988.52 988.17 987.54 987.40 987.50 987.75 988.03 987.97 987.96 988.36 989.25 990.20 990.79 991.54 992.68 993.79 994.78 995.82 996.82 997.82 998.99 1000.07 1001.11 1002.19 1003.18 1003.75 1004.98 1005.88 1006.79
991.97 991.42 990.27 989.81 989.12 988.54 988.54 989.01 989.13 989.86 989.72 989.61 989.41 989.27 988.91 988.83 988.84 988.76 988.73 988.77 988.97 989.11 989.08 989.83 989.99 990.67 991.86 992.28 992.86 993.66 994.52 995.53 996.61 997.47 998.31 999.52 1000.73 1001.89 1002.96 1003.88 1005.16 1005.45 1006.21 1006.92
996.64 995.31 991.97 990.77 990.63 991.05 990.62 990.33 990.49 990.08 990.56 991.26 991.44 991.53 991.50 991.40 991.64 991.23 991.17 990.88 990.55 990.68 990.80 991.52 992.05 992.47 993.39 993.86 994.30 994.97 995.31 996.38 997.49 999.19 999.50 1000.29 1001.50 1002.49 1003.87 1005.18 1005.99 1006.00 1006.80 1007.06
998.55 997.20 995.52 993.95 993.69 993.30 991.69 991.34 991.34 991.48 991.47 991.87 992.33 992.85 993.64 993.85 994.11 994.21 993.51 992.89 992.62 992.19 992.54 993.17 993.40 994.28 995.26 995.58 995.92 996.28 996.74 997.61 998.32 999.63 1000.33 1001.21 1002.06 1003.01 1004.35 1005.35 1006.47 1007.22 1007.56 1007.36
Wind_Speed
21 16 21 25 25 23 24 19 24 12 8 17 19 19 22 26 23 19 20 18 20 20 19 18 17 17 16 16 14 13 11 9 8 7 7 5 5 5 6 5 9 9 4 3
20 24 25 23 25 26 27 27 24 15 25 25 17 28 30 29 20 19 20 19 19 19 19 18 19 17 18 15 16 15 13 10 8 6 5 7 9 9 9 6 4 5 6 6
24 23 24 25 25 27 28 27 22 16 20 22 18 19 21 22 20 19 19 21 20 19 20 21 19 19 18 18 17 15 14 11 10 8 7 5 5 4 1 6 5 8 6 6
24 25 26 26 29 28 27 26 26 21 17 12 16 12 13 17 22 20 20 19 23 22 21 20 22 20 18 17 16 16 16 15 12 13 8 9 7 4 3 4 5 8 8 7
23 24 27 28 30 29 25 25 26 24 21 16 23 8 15 20 18 25 22 21 20 24 22 22 23 22 20 18 18 17 17 16 15 13 11 7 7 7 5 4 7 7 5 4
24 22 27 24 25 27 25 24 25 23 19 16 20 14 22 20 25 22 22 22 22 21 23 22 21 22 21 19 19 19 20 18 16 15 14 11 10 8 4 5 7 4 6 4
25 27 25 25 24 26 28 25 15 18 17 16 22 24 15 18 23 20 10 18 22 20 19 21 22 22 22 23 21 19 20 19 18 16 16 15 11 11 8 4 7 7 6 8
21 23 28 20 28 24 25 25 16 21 17 19 23 21 15 24 19 15 21 36 25 23 19 20 22 19 22 23 21 20 21 20 20 19 16 15 14 8 8 8 5 6 6 9
22 24 20 31 22 26 26 26 25 26 23 19 17 23 23 19 18 24 26 9 13 25 23 22 22 21 19 22 22 21 20 21 20 20 16 15 14 14 10 8 8 6 6 3
25 19 24 24 26 28 30 18 25 20 26 25 21 21 11 20 21 23 18 22 15 19 21 21 19 21 19 19 19 20 18 21 21 20 18 16 16 16 13 10 10 10 6 6
28 23 19 25 29 26 20 23 24 21 20 17 18 16 15 16 24 22 20 20 21 15 17 20 21 20 19 18 19 19 20 19 20 20 18 17 16 17 16 13 12 13 10 8
27 19 21 25 26 29 28 28 28 17 22 18 19 15 13 13 14 20 15 15 15 13 15 17 21 21 21 21 21 21 20 20 20 19 18 19 17 17 17 16 14 13 13 9
22 23 17 23 24 25 31 28 25 26 22 19 19 16 19 7 12 18 14 16 17 16 10 10 18 21 22 21 20 22 21 22 20 19 19 19 19 18 19 18 17 15 14 13
25 23 26 19 20 17 25 29 28 26 19 19 19 19 25 12 20 16 12 14 7 5 6 7 5 17 23 22 21 22 23 22 21 20 20 20 20 20 19 17 17 16 15 14
16 17 22 28 30 26 26 29 28 27 25 23 21 21 22 23 12 16 8 5 6 6 9 8 6 4 17 19 20 20 21 21 21 20 21 21 19 18 16 16 16 16 15 15
19 16 18 25 28 29 27 27 28 30 29 28 24 24 18 16 17 13 19 19 12 11 8 11 12 9 6 15 20 21 19 21 18 20 21 19 18 17 18 16 15 15 15 15
20 16 16 19 24 24 27 27 24 23 25 22 21 22 15 15 15 12 7 8 13 16 12 12 13 12 10 9 17 20 20 17 19 17 18 18 18 18 18 16 15 15 15 14
20 19 14 16 17 24 15 20 25 22 18 24 23 18 17 18 17 17 13 12 9 9 12 8 8 12 12 12 17 15 18 17 17 16 17 17 17 17 16 16 15 14 12 13
16 16 14 14 17 16 21 20 17 17 22 19 18 15 17 18 19 20 18 16 13 15 11 10 11 14 13 14 13 15 16 18 16 17 14 16 16 16 16 15 15 12 10 10
22 14 15 16 20 25 16 20 9 4 8 7 8 7 8 10 7 8 16 16 15 15 11 9 12 12 13 15 17 17 16 16 18 16 16 13 13 15 15 13 11 9 8 8
9 11 14 14 14 18 1 13 8 11 6 5 6 6 7 9 9 13 17 19 13 12 14 11 3 4 11 15 16 17 16 16 14 12 13 12 13 13 12 11 9 10 8 7
9 8 12 12 15 13 16 10 5 2 4 4 4 5 8 10 13 12 14 14 5 8 7 5 4 1 9 12 13 16 15 12 12 12 13 12 12 10 9 10 7 9 7 6
14 13 10 8 7 13 1 11 9 6 4 3 2 6 6 11 16 14 4 6 3 4 7 4 5 10 7 7 11 13 10 12 12 13 13 12 11 8 10 9 10 8 7 6
13 12 15 9 2 11 14 11 10 7 7 12 13 12 11 5 7 12 8 3 5 7 11 10 12 14 10 9 10 11 12 11 12 13 14 13 12 11 11 9 6 6 6 5
6 17 11 16 13 13 10 10 9 13 17 16 19 19 21 21 20 15 11 12 10 10 12 12 12 11 11 12 12 11 13 14 14 11 12 12 10 10 10 8 3 6 5 1
5 6 6 2 10 10 15 16 20 20 22 19 18 18 18 18 13 13 13 13 11 13 13 11 12 12 10 11 11 11 11 14 13 12 9 8 8 9 9 7 7 17 10 7
Wind_Direction
204 213 218 217 222 234 246 238 230 200 55 208 156 156 173 239 221 191 179 186 185 191 187 186 189 181 184 177 174 178 184 185 163 163 178 183 223 210 238 252 143 174 165 189
212 219 221 220 218 230 244 255 244 187 172 226 194 176 175 203 188 189 185 184 192 189 188 188 182 192 184 183 178 175 184 179 179 178 179 191 210 213 209 211 157 153 171 180
223 213 222 218 219 219 234 245 250 250 194 194 207 207 201 176 183 192 197 185 191 194 194 182 186 191 186 182 178 178 179 183 180 195 176 215 254 244 171 143 167 184 178 198
222 234 206 222 217 220 228 232 251 256 243 182 252 226 199 214 185 191 189 204 189 191 193 193 186 186 195 186 179 175 177 182 182 198 192 204 195 231 180 203 203 158 172 201
224 217 228 210 223 219 228 230 238 254 249 174 194 252 263 209 187 186 192 198 207 189 193 198 188 186 191 187 181 176 178 183 184 194 204 210 207 193 231 188 119 139 144 177
237 224 227 226 214 231 228 238 245 245 253 218 222 207 255 185 179 251 188 199 198 203 188 192 192 182 186 190 184 183 176 184 187 187 199 217 189 224 199 175 147 156 157 172
221 237 227 225 224 212 231 225 230 234 233 242 212 196 210 190 200 213 227 279 196 197 193 184 189 186 183 187 187 181 178 184 183 191 192 207 220 206 212 232 164 167 190 173
223 219 228 198 223 221 217 228 228 229 229 234 237 247 200 200 195 169 180 222 190 186 187 185 188 190 183 186 183 184 177 183 184 188 196 195 207 211 211 202 201 190 200 180
222 229 215 227 210 228 213 224 230 240 240 247 238 221 233 181 217 191 205 243 226 176 184 184 184 187 185 182 185 184 173 181 185 186 192 194 196 206 206 200 210 194 218 158
237 251 217 207 225 215 228 218 220 232 238 242 239 251 224 190 140 228 188 200 231 186 184 180 186 184 184 181 181 181 178 180 183 187 189 196 194 200 204 199 201 202 203 184
226 244 247 206 201 218 209 228 236 230 240 246 245 243 235 193 181 190 198 199 225 223 184 181 182 181 178 177 178 184 183 178 184 189 190 193 198 197 202 205 204 190 200 191
213 227 241 243 214 207 222 212 231 237 223 237 258 245 234 236 224 187 201 213 216 224 219 192 180 175 175 179 179 183 185 189 188 188 190 195 195 198 198 209 202 199 192 179
204 217 231 239 244 213 210 222 222 235 247 244 238 244 260 155 196 275 204 207 210 221 208 195 182 173 175 181 180 184 187 190 189 190 192 194 198 199 203 201 207 198 195 191
207 219 220 235 235 228 218 215 221 230 230 238 245 229 256 201 182 221 183 240 210 170 204 157 156 179 185 182 183 184 186 189 191 189 195 200 198 202 203 200 201 205 197 195
212 234 227 220 248 228 237 215 216 224 242 241 236 240 223 253 227 193 227 204 233 232 159 147 185 211 183 181 185 187 184 185 188 191 196 200 201 202 199 201 201 203 195 199
216 233 247 232 222 241 241 227 220 220 226 246 253 252 249 243 252 245 179 229 207 210 216 176 176 196 219 185 182 186 187 185 186 190 196 196 195 196 199 199 200 201 200 199
205 219 228 238 232 236 238 239 237 218 220 231 241 251 265 258 262 278 244 234 220 203 201 221 175 188 203 200 178 183 190 180 188 187 193 193 191 193 193 192 196 196 203 190
195 211 226 237 230 236 240 228 238 253 240 218 222 234 251 264 270 271 268 281 283 233 214 206 235 183 191 208 176 173 183 191 184 191 188 189 189 187 184 190 194 198 194 197
220 190 222 230 229 241 246 238 231 236 245 253 262 256 236 225 239 255 258 256 250 247 268 223 228 257 184 192 178 174 179 190 192 185 186 185 179 175 179 188 192 190 197 192
225 203 220 214 228 226 218 227 186 161 246 328 1 343 326 344 299 282 234 251 252 253 253 228 221 237 223 183 178 170 182 186 195 189 184 170 163 170 179 181 178 176 167 186
230 209 210 220 226 238 314 153 130 212 174 75 20 348 327 293 285 316 313 312 238 262 235 254 215 242 181 174 172 168 178 184 185 175 172 160 164 168 166 165 167 165 168 184
220 226 225 224 210 224 162 152 204 46 109 73 26 333 319 301 292 280 276 275 306 327 263 167 172 63 146 164 151 162 171 158 158 157 161 155 153 158 153 151 138 148 151 143
248 246 251 251 246 110 90 72 68 130 115 73 354 310 309 291 278 260 65 54 89 15 19 349 127 100 95 94 136 146 144 141 148 147 146 143 136 126 126 141 131 127 132 154
268 285 224 246 214 116 126 125 127 118 128 47 40 32 15 254 58 59 52 127 92 77 73 63 83 82 84 90 104 115 126 133 139 134 122 112 105 104 102 109 125 126 143 156
323 317 278 230 147 110 125 119 127 111 89 77 64 46 50 46 37 44 53 54 66 75 71 67 69 77 78 83 94 99 111 108 104 102 104 106 112 108 89 64 37 133 63 146
348 314 318 13 356 311 140 134 100 83 72 81 84 75 66 55 51 20 33 44 50 68 72 79 78 83 93 93 104 104 104 112 116 116 108 110 119 126 121 119 93 44 50 58